Theta_e
286 286 286 286 286 286 286 285 285 285 284 284 283 282 282 282 281 280 279 278 278 278 277 277 277 277 276 277 276 276 276 276 276 275 275 275 275 275 275 275 275 275 275 275 275 276 276 276 276 276 277 276 277 277 277 277 277 278 278 277 277 277 277 276 275 275 278 280 279 279 280 280 279 280 279 280 281 282 284 283 283 283 283 283 283
286 286 286 286 285 285 285 284 284 284 282 281 281 281 280 280 279 279 278 278 277 277 277 277 276 276 276 275 275 275 275 275 274 274 274 274 273 276 276 274 273 274 274 274 274 276 275 275 275 275 276 276 276 276 276 276 276 276 276 277 276 276 276 276 275 275 274 277 277 279 278 279 278 279 278 279 279 281 280 281 282 282 282 283 283
286 286 285 284 283 283 283 283 282 281 281 280 280 279 279 278 278 278 278 278 278 277 276 276 276 275 275 275 274 275 274 274 274 274 274 273 273 273 274 273 273 273 273 273 274 274 274 274 274 275 276 275 275 275 275 275 275 275 275 275 275 275 276 275 274 273 273 274 276 276 276 277 277 277 278 278 279 279 278 279 280 281 282 282 282
285 284 283 283 282 282 283 282 281 281 280 279 279 279 279 279 279 278 279 278 277 276 275 275 275 274 274 274 273 273 273 273 273 273 273 272 272 272 272 272 272 273 273 273 273 274 274 274 274 274 274 274 274 274 274 274 274 274 274 274 274 274 274 275 274 273 273 272 274 274 275 275 275 276 277 278 277 277 277 278 279 279 280 280 280
284 283 283 282 282 282 282 281 280 280 279 279 279 279 279 278 277 276 276 276 275 274 274 274 273 273 275 273 273 272 272 273 272 272 272 272 271 272 272 272 272 272 273 273 275 273 273 273 273 274 274 273 273 273 273 273 274 273 273 273 273 273 273 273 273 273 272 271 272 274 275 274 275 275 276 275 275 276 276 276 277 277 278 279 280
283 282 282 282 282 282 281 280 280 279 279 278 278 277 277 276 276 275 274 275 273 273 273 273 273 272 272 272 272 272 272 271 271 271 271 271 271 271 272 272 272 272 273 273 273 273 273 273 273 273 273 272 272 273 273 272 272 272 272 272 272 272 272 272 272 272 272 272 272 272 273 272 273 274 275 275 274 273 273 275 276 277 277 276 277
283 283 283 282 282 281 280 280 280 279 278 278 278 277 276 275 274 273 273 273 272 272 272 272 272 271 272 271 271 272 272 271 271 271 270 271 271 271 272 272 272 272 273 273 273 273 273 273 273 273 273 272 272 272 272 272 272 272 272 272 273 272 272 272 272 272 271 271 271 271 271 272 272 271 273 274 273 273 272 272 272 274 275 275 275
283 282 282 281 281 281 280 280 279 279 278 277 275 274 273 273 273 273 272 272 272 271 271 271 272 271 271 271 271 271 271 270 270 270 270 270 271 271 272 272 272 272 272 272 272 272 273 273 273 273 273 272 272 273 273 273 273 273 273 273 273 272 271 271 271 271 270 270 270 270 271 271 271 272 273 273 272 272 273 272 271 272 273 274 275
282 282 281 281 281 280 279 278 278 278 276 275 274 273 273 272 272 272 272 272 272 271 271 271 271 270 271 271 270 271 271 271 272 271 270 271 272 272 272 272 271 271 271 272 272 272 272 272 272 272 273 275 276 276 276 276 274 273 273 273 272 272 271 271 270 270 269 269 269 270 269 269 270 270 270 270 270 270 272 272 271 272 273 273 274
282 281 281 281 280 280 279 279 278 277 275 274 273 273 272 272 272 271 271 271 271 271 271 271 270 270 270 270 270 271 271 271 272 275 276 273 273 273 273 272 272 272 271 271 271 271 271 272 272 274 275 275 275 275 276 276 276 274 273 273 272 272 271 270 270 270 269 268 268 268 268 268 269 270 270 270 271 272 271 271 270 272 272 272 273
281 281 281 281 280 279 279 278 277 275 274 273 272 272 272 272 271 270 270 270 270 270 270 270 269 269 269 269 269 270 270 270 274 276 276 277 275 273 273 272 272 272 271 271 270 271 271 272 271 272 272 272 271 273 274 275 275 275 275 276 275 273 271 270 270 270 269 268 269 269 269 268 269 271 271 271 272 271 271 271 271 271 270 269 268
281 281 280 280 280 279 278 277 276 275 273 272 271 270 270 269 269 268 268 268 269 269 269 269 268 269 269 268 268 268 268 272 275 275 276 276 276 274 273 272 271 271 271 271 271 271 270 270 270 270 269 270 270 270 271 273 274 274 275 275 275 276 276 273 271 270 270 269 269 269 270 269 270 271 271 271 271 271 272 272 272 271 271 270 270
281 281 280 280 279 279 278 276 275 273 272 271 269 269 269 269 268 267 267 266 268 267 268 268 267 267 267 267 267 267 267 271 274 274 275 275 275 275 273 272 271 271 271 270 270 269 268 268 268 269 269 271 270 269 268 269 271 273 274 274 274 274 275 276 276 273 273 271 270 270 271 271 270 271 272 271 273 271 272 271 272 272 272 271 272
281 281 280 280 279 278 277 276 274 272 270 269 268 268 268 268 267 266 266 267 267 267 265 266 267 266 266 266 266 266 266 270 273 274 274 275 275 275 273 272 271 270 269 269 269 268 268 268 268 268 269 269 269 269 269 269 270 270 270 271 271 272 275 276 276 276 275 272 271 270 271 272 271 272 273 274 272 271 271 271 272 272 272 272 274
281 281 280 279 278 277 276 274 272 270 269 268 268 267 267 267 267 267 267 267 267 266 265 264 264 264 265 265 264 264 266 270 272 273 274 274 275 274 271 270 269 269 269 269 269 269 269 269 269 268 269 269 270 271 271 271 271 271 270 270 271 271 272 272 272 272 272 273 272 272 272 273 273 274 274 275 274 274 274 273 274 274 274 275 275
281 281 280 278 277 276 274 272 270 269 268 267 267 268 267 266 266 267 266 266 265 264 265 264 263 263 264 263 263 263 264 270 271 272 273 273 274 271 269 269 268 268 268 269 269 269 269 269 269 268 269 269 271 274 274 273 272 271 271 272 272 272 273 275 277 277 276 275 275 275 275 275 278 276 277 277 277 277 277 276 276 274 273 272 271
281 279 278 277 276 274 273 272 270 268 267 267 266 266 266 265 266 265 265 266 265 264 262 262 262 261 262 262 261 262 262 266 269 271 272 273 272 269 269 268 268 268 268 269 269 269 269 269 268 268 269 270 273 275 276 276 273 272 272 272 272 272 272 274 277 279 279 280 280 280 280 281 281 281 281 280 278 278 275 273 272 273 272 270 271
281 279 278 276 275 273 273 271 269 268 267 266 266 267 265 265 265 265 265 263 264 262 262 261 261 261 261 260 261 260 259 265 269 270 271 272 272 270 269 268 268 268 268 269 269 269 269 271 271 270 270 271 274 277 278 276 273 273 272 272 271 271 272 274 275 275 278 278 278 279 279 279 279 279 278 277 278 277 273 271 272 273 271 271 269
280 278 277 275 273 272 271 270 269 267 266 266 265 266 265 265 264 263 262 262 261 261 261 260 260 260 260 260 265 263 259 263 268 269 270 271 271 270 269 268 267 267 268 268 269 270 269 271 272 273 273 274 277 277 278 276 274 273 272 272 271 270 271 272 272 272 272 273 273 273 273 273 272 271 272 276 277 276 273 272 272 270 269 270 270
279 277 275 273 272 271 270 269 268 267 266 265 264 264 264 263 263 262 261 261 260 261 261 260 259 259 260 260 260 261 261 260 263 268 270 271 272 270 270 268 267 268 268 269 269 269 270 270 272 275 276 276 277 277 277 278 274 273 272 270 268 268 271 272 273 272 271 270 269 269 268 269 270 270 270 270 271 272 272 272 272 271 270 269 270
276 275 273 271 269 268 267 267 266 265 265 264 264 263 263 263 262 261 260 260 260 260 259 259 259 258 259 261 260 260 261 260 262 268 270 271 272 272 270 270 269 269 269 269 269 270 270 271 272 274 275 276 276 277 277 277 276 273 270 269 270 272 274 271 269 270 267 266 266 266 267 267 267 267 268 268 269 269 270 270 270 270 269 268 267
274 272 270 269 267 266 265 264 264 263 263 263 262 262 261 262 261 260 259 259 259 258 258 258 258 259 259 260 260 260 262 266 261 267 270 272 272 273 271 271 272 271 271 271 271 271 271 270 269 272 275 276 276 276 276 276 275 270 270 274 275 275 271 268 266 265 264 264 264 264 264 264 264 265 266 266 267 268 268 268 269 269 269 269 267
272 270 268 266 265 264 263 262 262 261 261 261 261 261 260 259 259 259 259 258 258 257 257 258 258 258 258 260 260 261 261 263 268 266 270 272 272 273 274 273 275 274 272 271 270 269 270 270 270 273 275 276 275 275 275 275 272 270 274 274 274 273 269 265 265 263 263 263 263 263 263 263 263 264 264 265 266 267 267 267 268 268 268 269 269
270 268 266 264 263 262 261 260 260 259 260 260 260 259 259 258 258 259 258 258 258 257 258 258 258 258 258 259 260 260 261 261 267 270 269 271 272 273 274 275 275 273 273 271 270 270 270 270 272 275 275 274 274 274 273 272 270 273 274 273 272 270 265 263 262 262 263 263 263 263 263 263 263 264 264 265 266 267 267 267 267 267 267 267 268
268 266 264 262 261 260 259 259 258 258 259 260 260 259 258 258 257 258 258 259 259 258 259 259 258 259 258 259 258 259 260 261 261 267 270 271 272 273 274 274 275 275 272 271 271 271 272 274 274 274 273 273 273 272 270 270 272 272 272 272 269 263 263 261 262 263 262 262 263 263 263 264 264 265 266 267 267 267 266 266 266 266 266 266 267
266 264 262 261 260 259 259 258 258 258 258 259 259 260 259 259 259 259 258 258 258 258 258 258 257 258 258 258 258 259 261 261 262 262 267 269 270 271 273 274 274 274 273 272 273 273 273 273 273 272 271 270 268 266 266 266 271 271 270 269 264 263 261 262 262 262 262 263 263 263 263 264 265 266 267 266 266 265 265 265 265 266 266 265 265
265 263 262 260 259 259 259 258 258 258 257 258 258 259 259 259 260 260 259 259 258 258 258 258 258 258 257 257 258 258 261 262 263 263 263 264 266 268 270 271 273 273 271 269 270 269 270 270 270 271 269 270 270 269 268 268 265 264 263 263 262 262 263 263 264 264 264 264 264 264 265 266 267 267 266 266 266 266 267 266 266 266 266 266 266
265 263 261 260 259 259 259 260 259 257 258 259 259 259 260 260 260 260 260 260 259 259 258 259 259 259 257 257 258 259 261 262 262 261 263 266 267 268 270 271 270 269 269 268 268 270 267 268 266 262 262 262 262 260 261 261 262 262 261 261 262 263 265 267 267 265 265 266 266 266 266 266 266 266 267 267 267 267 268 267 267 266 267 267 265
263 261 260 259 259 260 260 260 259 259 258 259 260 261 260 260 260 260 261 260 260 260 259 259 260 258 259 259 259 259 262 262 262 269 268 270 270 270 270 270 270 270 271 273 271 267 263 261 259 260 259 260 260 260 260 260 261 261 260 261 261 262 262 261 262 263 264 265 266 266 265 266 266 266 266 266 266 267 268 267 268 267 268 267 266
261 260 260 259 259 260 260 260 260 260 259 259 260 260 264 265 263 261 261 265 268 268 267 260 260 259 260 261 263 262 263 264 269 271 272 273 273 273 274 274 274 272 273 273 271 263 259 257 258 258 259 258 259 259 259 260 260 260 260 263 262 261 262 263 263 264 266 266 266 266 265 265 265 265 265 265 266 266 267 268 267 268 267 266 266
261 260 260 260 261 261 261 260 260 260 260 260 261 260 260 264 269 269 267 266 268 269 270 270 269 268 265 263 266 271 271 272 272 273 272 272 273 273 273 273 273 273 273 270 265 261 258 257 258 257 258 257 258 258 259 259 259 259 260 260 261 261 262 262 264 266 266 266 266 266 265 265 265 265 265 265 265 265 266 267 267 267 266 266 266
263 262 261 262 262 261 261 260 260 260 261 261 260 261 261 260 262 269 271 270 269 270 270 271 271 271 271 270 268 267 270 272 271 271 272 272 272 273 273 273 272 272 272 271 263 259 256 256 257 257 257 257 258 258 258 258 259 259 259 260 260 261 262 263 265 266 266 266 266 265 265 265 265 265 265 265 265 265 265 265 266 266 266 267 267
264 262 261 261 261 262 261 261 261 261 260 260 260 261 261 261 261 262 266 271 271 271 271 272 272 272 272 272 273 271 271 271 271 271 272 272 272 272 272 272 272 271 271 264 257 257 255 256 256 256 257 257 258 257 257 257 258 259 259 259 260 261 262 264 265 265 266 266 266 265 265 265 265 264 264 264 264 264 265 265 265 265 266 265 266
263 262 262 261 261 262 262 261 261 261 261 261 261 261 261 262 262 262 261 260 263 267 270 271 271 271 271 272 271 271 271 271 271 271 271 271 272 272 271 270 271 270 268 260 256 255 255 255 256 256 256 257 257 258 258 258 258 259 260 260 261 262 262 264 264 264 265 265 265 265 265 264 264 263 263 264 264 264 264 264 265 264 265 265 266
261 261 261 261 261 261 261 261 261 261 261 261 261 261 261 261 261 260 259 259 259 258 257 259 265 270 268 268 270 270 270 270 271 270 271 271 271 272 270 261 258 257 256 256 256 256 256 256 256 256 256 256 257 257 257 257 258 259 259 260 261 261 262 263 263 264 265 265 265 264 264 264 263 263 263 263 263 263 264 264 264 265 265 265 266
260 260 260 260 260 260 260 260 260 261 261 261 261 261 261 260 260 259 258 258 257 256 256 257 256 263 267 268 269 269 270 270 270 270 270 270 271 270 260 254 254 254 255 254 255 256 256 256 256 256 255 255 256 256 256 257 258 258 258 259 261 261 261 262 263 264 265 265 265 265 264 263 263 263 263 263 263 263 263 264 264 265 265 266 266
259 259 260 260 260 260 260 260 260 260 262 261 261 261 260 260 259 259 258 258 256 256 255 254 254 256 260 260 263 267 269 269 269 269 269 269 271 262 254 253 253 253 254 254 254 255 255 255 255 255 255 255 255 256 256 257 257 258 260 260 259 260 260 262 263 264 263 264 265 264 263 262 262 262 262 262 263 263 264 264 264 265 265 265 266
260 259 259 260 261 261 261 260 261 262 261 260 260 260 260 259 259 258 257 256 256 256 255 253 258 254 253 254 261 259 258 265 266 266 267 268 262 254 253 253 253 253 255 253 253 253 254 254 253 254 254 254 255 256 256 256 257 257 258 259 260 260 263 262 262 261 262 263 264 264 264 263 262 262 263 262 263 263 263 264 264 264 264 265 265
259 261 262 262 262 260 259 258 258 258 258 259 259 259 259 258 258 257 256 255 255 255 254 254 254 254 255 254 252 256 258 254 254 254 254 254 253 252 251 251 252 253 254 254 254 255 253 255 254 254 255 254 256 255 255 256 256 257 259 260 260 260 260 260 260 260 261 262 263 264 263 262 262 262 262 262 262 263 263 263 264 264 264 264 265
259 260 261 262 260 260 258 257 257 258 258 258 259 259 258 257 257 256 255 255 255 254 254 254 255 255 255 253 253 253 252 253 253 253 253 252 252 252 252 251 252 253 254 254 254 253 254 254 254 254 254 254 254 255 255 256 256 257 258 259 260 260 260 260 260 260 260 261 263 264 263 262 262 262 261 262 262 263 263 263 263 264 264 264 265
258 259 260 261 260 260 258 258 258 258 258 258 258 258 257 257 256 256 255 255 255 254 255 254 255 254 255 259 263 262 256 256 256 255 255 255 254 252 252 252 253 253 254 255 255 254 254 254 253 254 254 254 254 254 254 254 256 257 258 259 259 260 260 260 260 260 261 262 263 263 263 263 262 261 261 261 263 263 262 263 263 263 264 264 264
257 257 257 258 260 259 258 258 258 258 258 258 258 257 257 256 256 255 255 255 255 255 254 254 255 254 258 261 263 265 263 261 260 259 258 256 254 253 253 253 253 253 254 255 255 255 254 254 254 253 254 254 253 254 254 253 254 255 257 257 258 258 258 259 259 261 261 262 263 263 263 263 263 263 262 263 261 261 261 261 262 263 263 263 263
256 255 256 257 258 258 258 258 258 258 257 256 256 256 256 255 255 255 255 255 255 255 254 254 255 254 255 261 261 263 260 259 259 259 257 256 254 254 253 254 253 254 253 254 255 254 254 253 254 254 254 254 254 253 254 254 254 255 256 257 257 258 258 259 260 261 261 262 262 262 262 263 263 261 260 261 261 260 260 261 261 261 262 262 262
256 257 257 258 258 257 257 256 256 256 256 256 255 255 255 254 254 254 254 254 254 255 255 254 254 254 253 255 257 256 254 254 253 254 254 253 253 253 253 253 253 253 254 254 254 253 253 254 254 254 254 254 254 251 254 254 254 254 255 255 256 257 258 258 259 259 260 261 262 262 262 262 263 262 260 261 260 260 260 260 260 260 261 261 261
254 255 255 254 254 253 253 254 254 254 254 254 253 254 254 254 254 254 254 254 254 254 254 253 253 253 253 253 252 253 253 253 253 252 253 253 253 253 253 253 252 253 253 253 253 252 252 253 254 253 254 254 254 254 254 254 254 254 255 255 255 256 256 257 257 259 261 261 261 261 261 262 263 262 261 260 260 259 259 259 260 261 260 260 260
253 253 253 253 253 252 252 251 253 252 252 253 253 253 253 254 254 254 254 254 254 254 253 253 253 253 253 253 253 253 253 252 252 253 253 253 253 253 253 253 253 253 254 254 252 252 253 253 253 253 253 253 253 253 253 253 254 254 255 255 255 256 256 257 258 259 260 261 260 260 261 262 263 263 263 262 260 259 259 259 259 259 259 259 260
255 254 253 253 252 252 252 252 251 251 251 251 251 252 253 253 253 253 253 254 254 253 253 253 253 253 253 253 253 253 253 253 253 252 252 252 252 252 253 252 253 253 253 253 252 253 252 253 253 253 253 253 253 253 253 253 253 254 255 255 256 256 257 257 258 258 259 260 261 261 261 262 263 263 262 261 259 259 259 259 259 259 259 259 259
252 252 251 251 251 251 251 251 251 253 251 251 251 251 251 252 252 253 253 253 253 253 253 253 253 253 253 253 253 253 253 253 253 253 252 252 252 252 252 252 252 253 253 253 253 253 253 253 253 252 253 253 253 253 253 253 253 254 254 255 255 256 257 258 258 258 258 259 260 261 262 263 263 263 262 260 259 258 258 258 258 258 258 259 259
251 251 250 251 250 251 251 251 251 250 250 250 250 251 251 251 251 251 252 252 252 253 253 252 253 253 253 253 253 253 253 252 252 252 252 252 252 252 252 252 252 252 253 253 253 252 252 252 252 253 253 253 253 253 253 253 253 254 254 254 255 257 258 258 258 258 259 260 260 262 263 263 263 263 262 260 259 258 257 257 257 258 258 258 258
250 250 250 250 250 250 250 250 250 249 249 249 249 249 250 250 250 251 251 251 251 252 252 252 253 253 253 253 253 253 253 252 252 252 252 252 252 251 252 251 251 252 252 252 252 252 252 251 251 252 252 252 252 252 253 253 253 254 254 254 256 257 258 258 259 259 260 260 262 263 263 263 263 263 262 259 258 257 257 257 258 258 257 256 257
251 250 250 250 249 249 249 248 248 248 248 248 248 248 249 249 250 250 250 250 251 251 252 252 252 252 252 252 252 252 252 252 252 252 252 252 251 251 251 251 251 251 252 252 252 252 252 252 252 252 252 253 253 253 253 253 253 253 255 256 257 257 258 259 259 261 262 263 263 263 262 262 262 262 261 260 258 257 258 259 258 257 256 256 256
Wind_Speed
7 7 7 8 9 8 8 7 8 7 7 6 6 5 5 5 5 4 4 4 4 4 4 3 3 3 3 4 4 4 4 4 4 4 4 4 4 4 4 4 4 5 4 5 5 5 5 5 6 6 5 6 7 7 6 6 6 7 7 7 8 7 7 8 11 14 13 10 10 11 8 7 10 8 9 10 12 10 11 12 12 11 12 11 11
7 8 7 8 8 8 8 7 8 7 7 6 6 5 4 4 4 4 4 4 4 4 4 3 2 3 3 4 4 3 4 3 4 3 3 3 3 3 4 4 4 4 4 5 5 5 4 6 6 6 6 6 6 6 7 7 7 8 8 7 7 7 4 6 9 10 16 13 13 11 10 6 11 7 7 9 12 11 11 11 11 10 11 11 11
7 7 8 8 8 7 8 8 8 8 8 6 6 5 4 4 4 4 4 4 4 4 3 2 2 2 3 4 3 3 3 3 3 3 3 3 3 4 4 4 4 5 5 5 5 5 6 6 7 6 5 7 7 7 6 7 7 7 8 6 8 8 8 6 8 11 13 14 13 14 11 6 8 11 10 9 11 11 11 11 12 12 11 12 12
8 8 8 9 8 8 8 8 9 8 7 6 6 5 4 4 4 3 3 3 3 3 3 2 2 3 3 3 3 2 3 2 3 3 3 3 3 4 4 4 4 4 5 6 6 6 6 7 7 6 7 8 8 7 7 7 7 7 8 7 6 7 7 7 6 8 10 14 15 13 11 11 8 10 10 10 10 10 10 11 12 12 13 12 14
8 8 9 10 8 9 8 8 8 8 7 6 6 6 5 4 3 3 3 3 3 3 3 3 3 3 2 3 2 2 2 2 3 3 3 3 3 4 4 4 4 5 5 5 6 6 6 6 7 7 7 8 8 7 7 9 7 6 7 7 8 8 8 8 8 8 10 12 14 13 11 10 8 8 9 10 10 9 8 10 11 12 12 11 9
8 9 9 10 9 9 9 8 8 8 7 6 6 5 5 4 4 3 3 2 3 3 3 2 3 2 2 3 2 2 2 2 2 2 2 3 4 4 4 4 4 5 5 5 5 5 6 7 7 7 7 8 9 8 8 7 7 8 9 9 9 8 8 8 8 8 9 11 11 14 12 10 10 7 9 10 11 12 10 9 9 9 10 11 12
8 9 9 9 9 9 8 8 8 8 7 7 6 6 5 4 4 4 3 2 3 3 3 2 1 3 2 3 1 1 1 2 2 2 3 3 3 4 4 4 4 4 4 5 5 6 6 6 7 7 8 7 8 8 8 9 9 10 9 10 10 10 10 9 9 10 10 12 12 12 14 12 10 13 11 10 10 9 11 12 10 8 9 11 12
9 9 9 9 9 9 8 7 7 7 7 6 6 6 5 4 4 3 3 3 3 3 2 2 1 3 2 2 0 0 0 1 1 2 2 2 3 3 3 4 5 5 5 5 5 6 6 6 6 7 7 7 7 9 9 9 10 12 10 10 10 11 10 9 10 9 10 11 11 12 12 13 12 10 10 12 12 9 7 10 14 13 12 11 10
10 10 9 9 9 8 7 6 6 7 7 6 6 6 5 4 4 3 3 3 2 2 2 3 2 3 2 2 1 1 0 1 0 0 1 2 2 3 4 5 6 6 6 6 6 6 6 6 6 6 9 14 19 17 16 16 12 10 11 11 11 11 10 10 9 10 10 10 11 11 12 12 11 12 12 11 12 12 10 10 13 12 13 12 9
10 10 10 9 8 8 8 8 8 8 7 7 6 6 6 5 4 4 3 3 2 1 1 2 3 3 1 1 0 0 1 0 2 6 7 4 3 5 6 6 7 7 8 9 8 7 7 7 7 15 17 17 17 19 19 18 18 14 12 11 11 9 7 8 8 7 9 10 10 11 12 12 12 12 13 13 11 11 10 10 12 13 12 13 10
10 10 10 9 9 9 9 9 9 9 7 7 6 7 6 5 5 4 3 3 2 2 2 2 3 2 2 1 0 1 0 1 6 8 8 10 6 6 6 7 7 7 7 8 9 9 9 9 8 10 12 13 12 18 18 18 18 19 19 18 15 11 9 9 8 8 9 9 9 9 11 15 16 14 13 14 12 11 10 11 11 11 12 12 13
11 10 10 10 10 10 9 9 9 8 7 6 6 5 5 5 5 4 4 3 3 2 2 3 2 2 1 0 0 1 1 5 8 8 9 9 9 7 6 6 7 7 7 8 8 9 10 9 8 7 8 10 11 11 13 17 19 19 19 18 17 18 17 13 11 10 9 10 10 10 10 11 15 13 13 12 11 11 11 12 12 12 14 14 14
11 11 10 10 11 10 10 10 8 8 7 7 6 6 6 5 5 4 4 4 3 4 3 3 2 2 1 1 1 2 1 6 8 9 9 10 10 9 5 6 6 7 7 8 9 8 8 8 8 7 6 15 11 9 9 10 14 18 18 18 18 19 20 21 21 16 13 12 12 13 11 14 15 13 11 12 12 13 13 13 13 14 13 14 13
10 10 9 10 10 10 10 10 9 8 7 7 6 6 6 6 5 4 3 3 4 4 4 4 3 2 1 1 1 2 3 6 9 9 9 10 10 9 4 5 6 7 7 7 7 8 8 9 9 9 9 9 9 10 9 10 10 10 10 9 10 14 19 22 25 27 22 14 14 15 15 13 14 13 14 14 15 14 13 14 14 14 14 13 17
11 11 11 10 10 9 10 9 9 8 8 7 7 6 6 5 5 4 4 5 5 6 4 3 3 2 0 1 1 3 3 8 8 9 9 9 10 8 3 5 5 6 6 7 7 8 9 9 10 11 11 11 9 13 14 13 11 10 11 12 12 11 11 12 13 12 12 12 13 15 15 15 15 15 14 13 14 13 13 15 14 14 15 15 12
12 11 11 11 11 11 10 9 9 8 9 7 7 7 6 6 6 4 4 4 3 2 2 4 2 1 1 1 2 3 4 8 8 8 9 9 9 3 3 4 5 5 6 7 7 7 8 9 9 9 10 10 14 21 18 15 12 13 13 12 11 9 10 12 20 20 18 16 13 14 13 14 19 16 14 12 12 11 11 10 10 10 11 10 10
12 12 11 11 11 11 10 11 10 10 9 9 8 8 8 6 5 4 5 5 4 4 3 2 2 2 2 2 2 4 3 6 9 9 8 8 6 1 3 3 5 5 6 7 7 7 8 8 9 9 10 10 16 21 21 21 12 12 12 12 12 12 11 11 18 24 24 25 26 27 28 28 27 28 30 32 23 19 14 13 13 11 11 11 8
12 11 12 11 11 11 10 11 11 10 10 10 9 7 6 4 5 5 6 5 4 4 3 3 2 3 3 3 3 3 4 7 9 9 8 7 5 2 2 3 5 5 5 7 7 7 9 17 15 12 11 11 18 22 23 18 12 12 12 14 14 12 10 8 7 9 18 23 25 26 25 25 26 28 28 27 27 20 12 12 12 10 11 10 12
11 12 12 10 10 10 9 10 10 10 10 8 8 8 7 7 5 4 4 3 3 3 3 3 2 2 3 3 5 4 3 5 9 8 7 7 5 3 3 3 5 5 6 7 7 7 8 10 16 16 14 15 22 22 24 21 13 12 12 12 11 11 10 11 12 13 10 9 10 12 14 17 14 12 14 24 23 19 12 11 10 10 11 10 11
11 8 7 9 8 9 8 9 9 10 9 7 6 7 6 6 6 4 4 3 3 3 3 3 4 3 2 2 3 4 4 4 5 9 7 7 7 3 4 4 5 7 7 7 7 6 8 8 9 14 18 20 22 24 24 25 17 13 11 10 12 13 10 11 10 10 11 11 12 11 12 11 10 10 10 11 12 11 12 11 10 10 11 11 11
7 8 8 8 8 8 7 8 10 7 7 8 7 6 6 6 6 5 5 4 4 3 4 2 1 3 3 4 4 4 4 4 6 8 7 8 8 6 4 6 7 7 7 7 6 7 6 5 4 13 20 21 22 23 24 23 21 12 9 9 10 15 17 9 11 16 11 10 10 9 9 9 9 9 9 9 9 9 9 11 10 10 10 11 11
8 8 9 8 8 8 8 7 7 8 8 8 8 7 5 6 6 6 4 4 4 4 2 2 3 4 4 4 4 5 5 8 5 8 8 8 8 8 4 5 6 6 6 5 6 4 5 6 6 13 20 21 22 22 23 21 21 10 10 18 21 21 13 9 8 8 8 8 8 9 9 8 9 9 9 8 8 9 9 9 10 10 10 10 10
9 8 9 9 8 8 7 9 8 7 8 7 9 8 6 6 5 5 5 5 5 4 4 4 4 4 4 4 4 5 5 5 8 5 8 8 8 8 10 8 12 7 5 5 4 5 5 7 9 17 20 21 21 21 19 21 15 11 20 20 19 20 14 7 8 7 7 8 8 9 9 8 9 9 9 9 9 9 9 8 10 10 10 10 11
9 9 8 8 8 8 7 7 7 6 7 8 7 8 7 6 5 5 5 5 5 4 4 4 4 4 4 4 4 4 4 4 6 7 5 8 8 9 10 11 12 6 4 3 4 5 6 7 9 19 20 21 20 18 18 17 13 18 18 19 18 16 8 8 6 6 7 8 8 8 9 8 8 9 9 9 10 10 10 10 10 10 10 10 12
9 9 9 8 8 7 7 7 7 6 6 8 9 8 7 7 6 4 6 5 5 5 5 5 6 5 4 4 4 3 3 2 2 6 8 7 8 9 10 12 11 11 6 3 5 5 11 17 18 18 19 19 19 17 14 15 18 17 18 18 15 7 7 6 7 7 7 8 8 8 8 8 8 9 10 11 11 10 9 10 9 9 9 10 12
9 9 9 8 9 9 9 7 6 6 6 5 6 7 8 8 7 6 6 6 6 6 6 6 5 5 5 5 5 4 4 3 4 5 6 6 7 11 14 14 12 10 11 9 13 16 16 15 17 18 15 14 9 6 5 8 16 17 17 15 7 7 6 7 6 6 7 8 8 9 9 9 9 9 10 10 9 9 9 10 11 11 9 9 11
9 9 10 9 8 9 10 9 7 6 5 5 5 6 6 6 6 7 7 7 6 6 6 6 6 6 5 6 5 4 3 4 4 5 5 5 5 7 8 8 8 9 7 4 6 8 9 9 9 13 11 15 14 13 12 12 10 8 6 6 6 6 7 6 7 7 8 8 9 8 9 9 9 9 9 10 10 9 8 9 10 11 10 10 10
11 10 10 8 8 8 8 8 9 7 6 7 7 6 5 6 7 8 9 8 8 7 7 6 7 7 7 7 6 3 3 4 5 5 5 4 5 7 7 5 3 3 3 3 5 5 3 6 8 4 5 5 6 4 5 5 6 7 6 6 6 7 8 11 10 7 7 7 8 8 9 9 10 10 10 10 10 10 9 9 9 11 10 10 9
7 8 8 8 7 7 6 8 7 7 7 6 5 6 8 8 8 6 5 6 7 8 7 7 7 6 7 7 6 4 4 5 5 6 7 9 8 6 4 4 3 3 5 10 6 1 3 5 5 5 4 5 6 6 6 7 7 6 6 6 6 6 7 5 7 8 8 7 8 9 10 9 10 10 10 11 11 10 10 10 10 10 10 9 10
8 8 7 7 7 7 6 6 6 7 7 7 6 4 7 11 8 7 6 9 14 12 9 7 7 6 7 6 6 6 6 5 8 10 11 11 12 12 11 11 10 7 9 12 6 2 3 4 5 4 5 5 6 6 7 7 8 8 7 8 8 6 6 7 7 8 8 8 8 9 9 9 10 10 10 10 11 10 10 12 11 10 10 10 11
7 7 8 8 8 8 7 6 5 5 6 6 6 6 3 6 13 14 11 10 11 13 14 13 13 13 9 6 7 13 12 13 13 11 11 11 12 12 11 10 10 10 11 6 1 1 4 5 6 5 4 5 5 6 5 6 7 7 8 7 6 7 8 7 8 8 9 8 8 8 8 9 10 10 10 11 11 10 10 8 8 9 10 11 11
10 9 8 8 9 8 7 7 7 6 6 5 6 5 5 4 4 11 15 13 12 12 13 14 15 15 16 13 9 6 10 12 12 11 11 12 12 12 11 10 10 10 10 7 2 3 2 5 5 5 5 4 5 5 5 5 6 6 7 8 8 6 7 7 9 9 9 8 8 9 9 9 9 10 10 10 11 10 10 10 9 9 10 9 10
9 8 8 8 8 8 7 7 7 7 7 7 5 5 5 5 5 3 6 13 15 14 14 15 16 16 15 15 15 12 10 10 12 12 12 12 12 11 11 10 10 10 9 1 0 5 3 4 5 4 5 5 5 5 5 5 6 6 5 6 8 8 8 8 10 9 9 9 9 8 9 9 9 10 10 10 11 10 10 10 10 9 10 10 11
8 9 9 9 9 8 8 7 7 6 5 5 5 5 4 5 4 4 5 2 3 7 11 14 14 14 13 14 13 13 12 12 12 12 12 11 12 11 9 6 9 10 7 3 3 4 4 5 5 4 4 5 5 5 5 5 5 6 6 6 7 7 8 8 8 8 8 8 8 8 8 8 9 10 10 11 10 10 10 10 9 10 10 10 10
5 7 10 9 7 7 6 6 6 6 5 5 5 5 5 4 4 4 5 6 6 7 5 5 6 9 8 7 9 11 11 11 11 11 11 12 11 11 7 2 4 2 3 0 1 4 5 4 5 5 4 5 5 4 5 5 5 5 6 7 7 7 8 8 8 8 8 8 9 8 8 8 9 10 10 11 11 10 10 10 10 10 10 10 11
6 6 7 7 6 5 5 6 5 5 5 4 3 3 2 3 4 4 4 4 5 4 3 5 4 5 7 8 11 11 12 12 11 11 11 11 11 7 1 3 3 4 3 3 2 5 4 4 4 6 5 5 5 5 5 5 5 6 6 6 7 7 8 9 9 8 8 9 9 8 8 7 8 10 10 11 11 11 10 11 11 11 11 10 10
6 6 6 6 6 6 6 5 5 5 5 5 4 4 3 3 3 3 3 4 5 4 6 4 3 5 4 4 6 10 12 11 10 11 11 11 10 2 3 4 5 4 5 5 4 4 5 5 5 5 6 6 6 5 5 5 5 5 6 6 6 7 8 8 9 9 9 10 9 9 7 7 8 9 10 11 11 10 10 10 10 13 13 15 16
6 6 6 6 6 6 5 5 5 7 4 4 3 4 4 4 4 4 5 5 5 5 5 3 4 4 3 5 3 2 3 7 9 9 9 8 1 2 2 2 3 4 6 5 4 4 6 6 5 6 6 6 6 6 5 5 5 5 6 6 7 7 13 11 12 9 9 9 10 9 7 7 7 8 9 10 11 10 11 11 10 11 13 14 11
5 8 11 10 7 6 5 5 5 4 4 3 3 4 3 4 4 4 5 5 4 5 4 3 4 4 5 3 4 1 1 2 2 5 4 2 2 3 3 3 3 5 5 6 5 4 5 6 6 5 6 6 6 6 5 6 5 5 5 6 7 7 8 7 8 8 8 9 10 8 7 8 8 7 8 9 10 10 11 11 10 10 9 10 10
6 6 8 10 6 6 6 6 5 5 4 4 4 4 4 4 5 5 4 5 5 5 5 5 5 5 4 2 3 2 3 6 5 4 3 3 3 4 5 5 5 5 6 6 6 5 5 6 6 6 6 6 6 6 6 6 5 5 5 6 6 7 8 7 8 8 8 9 9 8 8 9 8 7 7 8 9 10 11 11 11 11 11 11 11
5 6 5 7 8 6 5 5 5 4 4 4 3 4 5 5 4 5 5 5 5 5 5 5 5 4 4 6 10 9 6 6 6 5 6 5 5 5 6 6 6 6 6 6 6 5 5 6 6 6 6 6 6 6 6 6 5 5 5 6 6 7 7 7 8 8 8 9 9 8 8 9 8 7 8 9 10 10 9 9 10 10 11 11 11
6 5 5 4 7 5 5 5 4 4 4 3 5 5 4 5 4 4 5 5 5 5 5 5 5 4 6 13 12 14 8 6 6 6 5 5 5 6 6 6 6 6 6 6 6 6 6 6 6 6 7 7 6 6 6 5 5 5 5 6 7 7 7 7 7 8 8 9 8 8 8 10 10 7 7 8 9 9 9 9 9 10 10 10 11
5 5 5 5 5 5 5 5 4 4 4 4 4 3 4 4 4 5 5 5 5 5 5 5 5 3 4 9 10 11 6 4 3 5 5 5 6 6 6 7 7 7 6 6 6 6 6 6 6 6 7 7 7 6 6 6 5 5 6 6 7 8 8 8 7 8 8 8 8 8 10 10 10 7 6 8 8 8 8 9 9 9 9 10 10
5 5 4 3 3 3 3 4 3 4 3 3 3 4 4 4 4 4 5 5 5 5 5 5 4 4 5 6 7 6 6 6 6 6 6 7 6 7 7 6 6 6 6 7 6 6 6 5 6 7 6 7 7 5 6 6 5 6 6 7 7 8 8 7 7 7 8 9 8 9 9 10 10 8 7 8 7 8 9 9 9 10 10 9 9
4 5 4 4 4 4 2 3 3 3 4 4 3 4 4 4 5 5 5 5 6 5 5 5 4 4 6 6 6 6 7 6 7 7 7 7 7 7 7 6 6 7 6 6 6 5 5 6 6 6 7 7 7 7 7 6 5 6 6 7 7 8 8 8 8 7 8 9 8 9 10 10 10 9 7 7 7 7 8 8 8 9 10 9 10
5 5 6 5 5 5 5 4 5 4 4 4 4 4 4 5 5 5 6 6 6 5 5 4 5 5 6 6 6 7 7 6 6 7 7 6 7 7 6 6 6 6 6 6 6 5 6 5 5 6 8 8 7 7 7 6 7 7 7 7 8 9 9 8 7 8 8 7 8 9 10 10 10 9 10 8 7 7 7 8 7 8 8 9 9
5 5 5 5 5 5 5 5 4 4 4 5 4 5 5 5 5 5 6 6 5 5 5 5 5 6 6 6 6 7 7 6 7 6 7 7 7 7 7 6 7 7 7 6 5 6 6 6 6 6 7 7 7 8 8 7 6 7 7 7 8 8 8 7 7 7 7 7 8 9 10 10 10 9 9 8 6 7 7 7 7 8 8 8 8
4 5 4 5 4 4 5 4 5 5 5 5 4 5 6 5 5 5 5 5 5 5 5 5 5 6 6 7 6 7 6 6 6 7 6 7 7 7 7 6 7 7 6 7 6 6 6 6 6 6 7 7 7 7 7 7 7 7 7 7 7 8 9 10 8 8 7 7 8 10 10 9 9 10 8 7 6 6 7 8 7 7 7 7 8
5 5 4 5 4 5 6 5 6 5 5 4 5 6 6 6 6 5 5 5 5 5 5 6 6 6 6 7 6 6 6 7 7 7 7 7 7 6 7 7 7 7 6 7 7 7 7 6 6 6 7 7 7 8 8 8 8 8 8 8 9 12 15 15 11 8 10 9 9 10 9 8 10 11 9 7 7 6 6 7 6 7 7 6 7
4 4 4 4 4 4 5 5 6 5 6 6 6 6 5 6 5 6 5 5 5 5 6 6 6 6 6 6 6 6 6 7 7 7 7 6 7 6 6 7 7 7 7 7 7 7 7 6 6 6 7 7 8 8 8 8 8 8 8 9 11 14 15 16 16 16 12 8 9 8 7 9 10 10 8 7 7 7 7 7 7 7 6 6 7
4 3 4 3 4 4 4 4 4 5 5 5 5 5 6 6 5 5 5 5 6 6 6 6 6 6 6 7 6 6 7 7 7 6 6 7 6 6 6 6 7 7 7 7 7 7 7 7 6 6 6 7 8 8 8 7 7 8 10 14 16 16 17 16 12 13 17 14 9 8 8 10 10 10 8 7 7 6 9 8 7 6 6 6 6
Wind_Direction
125 126 123 121 119 121 121 115 107 105 105 106 106 106 103 102 110 117 94 85 75 79 76 68 49 61 46 44 58 23 38 18 3 22 354 349 340 331 329 336 330 317 318 315 315 317 313 310 307 303 304 306 299 300 300 297 298 291 285 284 281 277 270 271 277 285 288 286 293 295 310 313 299 302 303 302 305 312 311 308 308 306 303 298 294
137 132 128 128 126 124 120 115 113 111 110 109 108 108 105 108 120 109 109 108 101 92 85 74 50 60 50 51 50 27 35 28 5 14 346 342 332 329 333 332 324 314 319 314 314 312 314 312 308 308 304 300 306 310 307 308 305 300 295 290 286 288 283 291 288 291 293 301 296 296 300 317 297 307 311 313 309 315 317 315 312 310 306 306 301
138 136 133 130 126 122 120 121 120 120 118 118 117 115 111 101 90 100 107 116 116 103 94 78 60 61 58 54 55 27 42 26 355 3 338 342 339 335 332 330 323 319 320 314 316 316 319 311 308 310 316 316 310 305 306 305 301 298 299 304 302 299 300 296 297 293 295 294 298 301 304 321 315 317 329 324 317 320 323 322 317 315 313 311 310
141 136 131 129 130 128 129 130 126 127 125 128 125 124 114 100 92 92 107 101 96 103 116 88 57 82 60 62 47 46 39 9 354 344 340 351 350 335 330 327 320 317 314 316 317 318 312 314 311 319 318 312 309 310 307 302 304 301 301 302 306 311 313 316 311 304 302 299 296 298 308 317 322 315 317 316 315 319 322 316 312 309 310 309 305
138 138 137 136 137 137 139 136 133 131 130 131 128 123 117 109 99 99 97 109 113 92 79 108 79 80 91 77 64 40 37 0 354 338 339 358 353 337 329 326 322 319 319 314 315 316 315 312 313 318 319 311 307 307 308 305 305 316 316 319 316 313 309 308 304 299 295 291 295 297 307 308 313 314 319 319 318 315 314 304 300 297 294 292 304
144 143 146 144 146 146 144 140 139 138 136 134 130 124 120 123 124 115 95 91 102 113 95 60 111 73 90 78 74 56 16 348 338 322 353 8 356 333 325 321 322 323 319 319 321 326 318 315 314 318 315 309 304 304 305 308 318 311 311 309 306 302 301 300 296 294 290 289 296 301 306 315 317 314 323 326 320 314 306 297 296 303 319 325 315
153 152 153 150 149 152 151 152 147 141 139 137 130 124 120 119 120 106 97 104 103 94 102 100 87 119 82 89 68 66 345 326 311 351 27 8 340 326 323 323 317 317 318 318 316 313 311 309 310 310 304 300 302 303 308 306 306 301 301 302 301 301 299 299 304 304 301 298 297 296 301 306 313 314 318 312 301 299 306 312 312 315 311 304 305
159 159 155 155 157 157 154 148 141 137 132 130 128 125 120 117 107 103 98 105 109 120 132 133 139 116 108 103 90 122 311 305 318 41 20 335 325 323 320 317 317 315 311 308 312 308 306 305 302 301 301 301 298 298 298 300 300 299 301 301 300 300 300 302 302 301 301 300 297 302 302 304 311 307 309 311 309 307 309 314 312 313 309 303 304
164 161 159 160 162 153 144 139 133 129 128 127 128 127 127 120 114 111 111 118 122 144 154 144 113 100 95 130 120 324 223 270 246 100 294 307 316 324 323 322 317 314 315 314 310 308 304 303 302 302 301 300 301 302 299 299 301 300 300 299 299 299 297 295 296 299 298 297 298 300 301 304 306 311 311 310 308 307 311 308 301 302 302 301 297
164 164 164 163 156 151 144 140 139 135 135 140 137 133 128 128 125 123 124 131 141 148 185 158 129 130 135 99 64 212 285 262 297 313 324 326 333 329 323 317 319 318 317 315 313 309 307 304 303 305 306 307 308 309 309 308 306 304 303 303 299 293 286 286 286 285 290 289 290 300 301 299 302 303 300 297 293 295 297 297 298 301 300 294 289
170 167 167 162 155 150 147 148 144 146 145 137 136 135 137 135 132 131 131 150 169 203 188 136 130 138 132 136 204 273 281 313 310 319 324 329 334 323 316 316 316 315 311 310 310 312 310 308 308 310 312 313 311 310 311 311 309 306 303 300 297 294 295 293 288 284 280 277 279 281 283 289 293 294 292 294 291 288 290 289 287 291 291 296 298
171 172 167 159 158 156 154 149 148 148 142 142 140 136 131 131 135 142 150 175 183 207 182 153 155 129 107 75 336 305 332 310 319 322 325 327 325 320 314 314 312 308 309 308 308 309 310 312 309 309 310 309 310 313 312 310 309 309 308 305 304 304 301 298 297 295 288 286 284 275 274 274 289 292 289 287 285 284 281 283 284 284 288 287 288
174 171 168 163 162 159 155 156 152 148 148 142 139 135 139 139 139 152 181 181 199 198 175 162 138 107 105 90 7 326 316 316 318 322 321 321 319 317 311 307 306 306 309 311 310 309 308 305 302 301 301 309 309 302 297 298 302 306 307 308 305 299 295 293 290 287 290 288 286 285 279 285 286 282 276 277 279 281 280 281 281 280 278 280 279
173 171 166 168 164 160 159 157 155 151 144 141 143 150 149 154 155 161 169 194 199 191 177 160 127 100 83 46 335 317 322 306 310 312 315 316 316 313 312 317 312 310 308 305 303 302 303 305 308 306 306 306 299 293 288 287 289 289 284 273 270 277 283 284 286 287 286 281 275 272 273 270 271 271 271 276 280 278 278 275 275 274 275 270 281
175 174 172 169 161 159 159 157 152 149 148 147 153 157 156 148 150 170 177 200 188 195 174 140 125 109 48 338 327 296 289 297 304 309 312 313 310 320 360 318 302 298 301 300 299 301 303 302 303 301 298 297 291 298 303 300 289 276 271 269 266 262 260 262 267 265 260 258 258 259 264 264 264 268 270 270 266 269 272 274 276 279 277 278 272
179 173 172 168 166 164 161 159 153 153 152 154 158 162 158 157 165 176 182 197 191 162 126 126 135 150 191 221 254 272 282 295 301 305 307 309 314 352 317 300 299 300 300 300 297 299 297 290 282 278 280 285 288 300 302 301 289 282 279 277 273 262 253 252 265 267 271 269 265 265 261 263 269 272 271 271 267 266 264 265 269 268 278 283 279
183 178 174 170 170 167 164 160 160 158 159 158 166 166 159 158 168 162 182 195 185 164 160 138 151 166 212 228 236 262 266 289 296 299 303 307 320 260 293 298 295 294 292 296 292 275 267 267 269 274 280 278 289 301 303 305 298 294 290 286 282 279 277 274 277 281 288 291 295 300 302 306 310 314 315 314 312 311 310 303 291 290 288 284 278
187 178 178 176 171 167 166 162 161 161 162 169 169 162 146 142 163 169 180 188 181 170 154 147 180 175 211 237 232 244 260 280 288 294 298 296 303 305 301 294 295 288 279 270 262 263 263 271 276 278 282 281 287 298 309 312 303 298 295 294 293 291 293 301 311 305 302 299 298 300 304 304 306 308 307 305 305 306 303 297 301 304 294 291 292
184 184 184 172 165 163 160 160 160 160 165 166 162 155 155 157 159 148 178 168 174 149 156 161 200 221 213 228 253 259 259 271 284 290 289 288 291 267 234 236 252 257 263 263 259 260 265 268 277 286 297 302 308 313 314 316 314 312 310 311 314 316 314 313 303 296 295 303 310 314 307 305 307 303 298 303 306 309 306 299 302 295 291 292 292
190 175 156 155 153 153 157 156 156 157 157 147 148 144 138 134 151 161 177 157 184 175 177 168 192 231 249 259 254 248 247 249 262 281 280 281 285 264 228 234 253 262 264 267 275 269 266 271 276 290 309 313 317 318 319 320 323 324 332 330 321 310 306 302 313 327 331 325 314 312 306 307 308 310 313 314 313 316 316 314 315 314 309 308 305
155 154 143 141 144 146 144 151 148 145 146 148 142 138 143 150 152 154 168 169 166 166 157 161 188 244 250 245 234 240 225 237 258 269 271 277 282 280 243 248 254 263 264 268 263 269 285 293 299 317 318 317 316 320 323 325 326 335 338 311 301 311 323 338 343 336 325 320 313 310 312 317 315 311 311 314 315 318 319 318 320 320 318 317 314
142 138 145 144 140 138 137 131 135 138 139 139 141 143 142 141 153 152 164 171 166 178 175 196 212 235 241 238 232 233 244 245 226 261 273 282 286 289 272 259 272 267 281 283 293 310 325 326 325 315 314 317 322 324 326 328 334 339 316 320 325 330 338 349 332 325 317 317 317 315 317 317 316 314 311 310 308 308 310 308 307 305 303 302 299
140 138 137 139 142 140 138 139 140 140 144 149 145 146 141 139 146 158 167 163 170 188 201 208 215 230 242 245 235 230 226 236 255 243 266 280 282 285 289 290 299 304 295 296 320 324 321 312 303 307 316 322 325 326 329 334 336 320 324 330 334 340 344 327 324 323 320 317 315 314 314 314 314 313 310 308 305 303 301 296 295 294 290 284 278
132 136 138 139 136 137 138 135 136 143 148 145 145 143 150 153 155 166 167 167 178 192 211 203 206 214 225 250 249 236 229 210 247 270 275 279 280 287 293 298 303 296 295 320 323 316 306 290 301 316 323 324 326 329 332 332 325 325 332 335 341 341 328 321 316 313 310 308 309 309 308 306 302 303 304 302 302 303 301 296 292 288 283 281 278
142 143 145 143 141 138 134 141 149 154 156 153 151 153 151 156 163 185 176 188 190 193 209 191 195 207 214 222 241 250 249 232 246 267 271 276 283 292 300 303 304 305 314 322 312 299 307 314 318 322 324 327 327 329 328 325 325 330 334 337 339 321 319 311 310 308 309 307 305 302 300 299 295 292 292 296 297 298 296 294 286 279 273 270 273
147 150 146 148 147 146 143 147 155 160 159 164 162 163 162 168 172 173 174 191 194 191 205 196 201 200 210 224 227 228 239 229 245 254 257 270 280 288 296 304 301 304 312 312 308 311 313 313 318 322 325 325 324 320 317 317 324 329 330 330 318 315 307 311 304 306 301 302 300 300 298 297 298 295 293 293 295 297 299 298 304 303 302 297 299
149 149 154 151 150 156 158 160 160 159 169 163 172 166 167 173 176 176 177 182 189 192 198 199 198 201 211 221 220 217 224 229 230 236 236 250 257 270 284 279 283 307 303 268 296 298 297 309 315 320 324 319 320 320 318 317 317 314 313 308 308 304 305 298 305 308 308 303 303 301 302 302 300 304 308 308 305 301 296 295 297 297 301 300 296
163 164 158 155 161 166 164 158 158 165 179 171 175 179 179 183 185 189 182 183 181 195 191 198 199 201 203 202 205 206 226 228 224 217 242 242 254 262 263 247 235 205 246 259 266 273 308 326 328 321 307 313 316 315 308 303 304 310 308 309 305 304 309 313 311 302 293 293 294 301 305 313 318 319 316 315 312 310 309 303 298 296 295 296 294
142 146 152 152 163 171 169 168 172 167 174 184 201 189 179 186 194 212 218 189 185 181 190 202 203 198 186 191 176 197 221 225 227 224 226 241 251 259 252 222 227 218 265 295 295 36 4 332 324 321 325 319 322 320 317 321 319 314 309 308 311 314 311 310 317 312 305 303 311 318 316 319 319 320 318 315 314 314 316 310 305 298 296 289 285
145 157 158 161 162 168 170 170 175 168 169 178 183 208 209 202 199 190 212 209 212 211 194 197 196 183 184 204 182 191 210 224 238 248 256 272 282 281 285 293 296 294 297 303 314 359 322 313 298 302 309 316 314 315 317 321 320 320 318 321 320 312 313 313 308 306 306 312 314 317 320 321 318 317 317 313 310 310 314 318 311 308 304 300 296
156 158 165 175 174 172 166 171 177 166 170 169 180 185 213 228 218 215 208 210 218 224 224 221 211 200 188 205 231 235 237 240 248 263 273 276 276 280 286 291 293 298 302 306 327 305 293 304 297 302 297 300 298 300 309 312 311 312 313 316 312 315 315 313 313 314 316 315 318 321 322 320 317 317 317 316 312 309 310 307 304 307 307 306 302
173 179 175 170 168 176 169 170 169 172 176 174 178 173 183 187 241 228 223 217 216 219 223 222 221 221 222 221 213 214 245 256 260 263 264 269 275 281 285 287 291 298 297 300 316 293 283 282 287 291 294 302 292 295 298 296 299 303 309 315 316 315 318 318 320 320 316 316 322 327 324 323 320 319 316 313 312 311 311 312 315 312 306 299 298
172 170 172 168 168 169 167 169 177 177 175 173 180 181 186 190 189 222 225 221 223 227 228 228 230 233 237 244 248 246 240 246 251 255 260 266 274 278 283 287 292 295 297 325 208 277 276 271 274 282 290 290 293 290 288 290 297 299 298 303 310 316 313 311 317 312 313 316 325 322 321 322 323 319 314 314 317 313 314 313 314 307 306 306 303
175 170 172 170 166 175 173 172 171 176 175 172 176 176 188 190 190 177 181 217 258 249 241 236 235 237 241 243 246 250 252 256 262 265 265 265 268 273 278 283 288 294 282 207 213 243 262 268 270 272 281 282 285 294 295 297 296 297 301 302 303 303 307 313 315 312 309 315 319 314 317 321 324 322 320 320 316 312 312 313 313 313 311 307 305
150 156 157 159 169 167 162 161 163 163 167 170 174 177 181 173 173 178 183 193 209 219 233 260 259 244 239 247 252 251 252 255 256 259 261 263 264 267 287 349 315 321 338 7 221 236 251 257 267 277 277 284 285 288 292 292 294 301 302 306 305 306 315 316 311 310 312 316 313 310 314 320 323 322 322 320 319 318 318 316 314 312 309 311 312
140 142 149 150 147 150 153 155 161 164 164 165 159 157 153 157 183 197 200 213 213 224 248 249 250 296 280 256 246 246 251 252 252 256 260 260 261 260 259 271 257 259 252 261 243 257 249 255 261 270 272 273 279 282 279 288 290 293 296 298 306 313 313 310 307 313 322 318 309 306 311 316 321 324 322 319 318 317 315 316 315 315 317 314 312
143 142 148 149 146 147 147 147 152 161 164 159 160 166 166 170 178 187 200 208 220 221 213 243 307 314 301 304 280 266 259 255 258 261 259 258 253 124 158 204 218 248 260 259 259 259 262 262 258 266 268 269 273 275 285 287 288 290 298 302 302 307 304 300 308 322 321 316 312 307 309 312 319 324 325 321 319 317 316 315 315 320 323 322 322
142 146 147 146 143 143 133 133 151 168 148 136 146 148 169 172 185 189 202 220 222 217 229 232 218 226 255 276 271 204 288 286 280 272 265 259 133 99 180 201 215 222 249 256 251 254 261 266 257 258 264 265 274 280 283 285 289 291 290 297 303 299 307 309 311 311 309 308 308 308 310 312 316 320 323 322 320 317 318 319 318 317 318 321 318
127 145 150 152 148 136 140 138 144 137 147 145 164 166 176 176 188 193 210 219 229 237 228 218 223 229 242 243 282 291 302 289 258 249 248 198 182 184 197 217 223 238 241 249 257 255 257 266 266 266 269 271 270 274 277 282 286 286 290 296 301 300 303 304 306 308 307 306 307 309 315 313 311 315 320 320 319 319 318 318 317 318 315 313 316
138 136 150 155 147 147 137 148 150 156 172 158 180 168 177 191 196 202 203 207 228 230 227 229 235 240 239 237 233 193 198 241 242 239 235 229 214 220 210 223 228 231 244 250 250 252 257 264 265 268 269 267 269 271 269 274 280 286 297 297 294 299 301 301 300 303 303 304 303 309 316 313 309 312 316 318 317 321 321 321 320 321 319 319 318
133 140 148 156 152 147 145 152 165 174 171 172 175 182 195 193 195 197 204 217 225 227 231 230 239 238 223 235 240 224 207 226 237 236 232 230 227 221 228 230 228 236 238 240 244 246 247 256 260 259 264 262 259 260 267 272 278 288 290 292 293 291 292 292 293 295 297 296 296 305 313 310 307 313 320 320 318 319 317 318 317 318 320 320 322
139 142 149 153 160 147 151 168 169 167 171 174 184 189 188 190 194 198 213 221 224 229 237 246 247 240 253 257 258 256 245 215 222 233 235 222 223 234 236 237 234 231 232 233 232 238 245 248 254 255 258 260 258 262 267 271 273 280 285 288 290 290 288 289 290 291 294 295 297 305 309 308 305 305 311 315 317 317 319 319 319 318 320 322 323
137 146 151 149 154 158 162 164 151 152 167 172 186 177 178 185 198 209 217 224 227 228 234 245 254 246 249 260 264 266 278 289 261 246 239 239 237 242 241 240 237 233 231 233 230 225 229 238 248 251 252 256 254 253 255 260 266 273 277 279 282 284 284 285 288 293 297 297 299 304 304 304 302 299 308 314 313 314 315 317 318 319 318 320 322
136 138 140 137 132 121 123 135 144 155 163 168 173 186 200 206 213 216 218 228 228 229 229 239 244 252 257 262 266 273 272 263 253 250 246 248 245 244 244 241 241 238 240 236 235 223 224 237 251 257 254 258 255 251 251 254 255 257 264 270 274 276 275 276 282 289 295 296 300 305 305 300 299 300 304 309 312 316 318 319 320 320 321 322 322
106 111 116 115 108 117 117 121 136 148 156 163 180 200 196 204 214 220 223 228 233 231 231 233 236 241 252 252 245 243 244 246 250 248 248 244 248 249 249 247 242 243 245 247 236 228 230 238 249 259 265 262 259 259 258 255 247 249 249 256 261 267 267 269 269 279 287 290 299 304 300 296 298 300 299 301 306 312 313 316 316 318 321 321 325
123 129 136 144 149 156 163 169 168 170 174 184 196 209 216 217 222 224 227 231 230 231 235 234 233 235 239 247 244 242 242 237 240 239 243 245 243 250 248 248 248 247 246 247 244 233 232 231 241 252 259 262 265 261 261 258 257 252 252 246 251 258 260 266 270 276 279 290 297 294 293 293 296 296 298 302 304 304 303 308 310 313 312 315 316
140 146 151 154 163 165 167 164 163 179 190 202 209 214 220 219 219 222 225 227 233 236 240 242 238 242 242 243 243 245 241 240 239 239 239 241 244 246 250 248 249 251 250 249 246 247 245 245 244 248 255 260 261 263 262 259 256 256 255 254 252 258 261 265 268 270 275 283 284 284 286 288 292 294 295 298 298 301 304 307 309 313 312 315 313
143 142 156 156 156 162 173 169 183 193 197 209 215 222 226 230 231 228 232 233 236 237 242 246 245 248 247 250 244 246 242 241 243 242 244 244 245 244 246 246 248 250 254 255 251 249 246 246 245 249 252 258 259 260 261 262 262 259 259 258 258 254 260 265 268 271 269 273 273 276 276 280 290 292 290 286 291 294 303 306 310 309 310 313 316
150 155 160 166 176 179 183 189 190 200 207 211 218 224 226 227 230 235 237 238 237 237 233 241 247 245 244 247 247 248 245 247 248 248 246 247 247 244 242 243 246 245 245 250 249 248 248 248 244 247 251 257 257 258 261 261 262 260 261 260 260 258 265 270 272 268 272 273 274 269 270 283 289 288 283 280 284 289 291 293 296 301 307 309 312
160 167 171 180 183 196 191 192 198 205 210 212 213 226 227 226 233 235 239 239 245 243 244 241 244 244 245 251 249 249 245 246 247 248 249 248 247 244 243 243 244 244 243 248 250 251 250 249 246 247 251 254 256 257 256 257 258 260 262 261 263 267 270 273 274 275 275 270 267 271 282 286 284 282 276 272 275 286 291 288 292 299 302 306 307
166 177 185 189 191 196 193 202 212 215 213 220 224 231 239 243 246 247 246 244 244 247 247 247 248 250 250 249 249 252 250 251 250 251 251 252 249 248 246 245 247 249 251 248 252 249 249 248 247 247 249 253 256 255 255 253 257 259 261 265 268 271 273 275 274 271 269 273 278 282 281 280 280 281 279 275 280 281 282 286 290 294 298 297 299